Regional Weather Roundup
Issued by NWS

Home | Current Version | Previous Version | Graphics & Text | Print | Product List | Glossary On
Versions: 1 2 3 4 5 6 7 8 9 10 11 12 13 14 15 16 17 18 19 20 21 22 23 24 25 26 27 28 29 30 31 32 33 34 35 36 37 38 39 40 41 42 43 44 45 46 47 48 49 50
000
ASUS43 KBIS 221620
RWRND

NORTH DAKOTA REGIONAL WEATHER ROUNDUP
NATIONAL WEATHER SERVICE BISMARCK ND
1100 AM CDT WED OCT 22 2014

NOTE: "FAIR" INDICATES FEW OR NO CLOUDS BELOW 12,000 FEET WITH NO
SIGNIFICANT WEATHER AND/OR OBSTRUCTIONS TO VISIBILITY.


NDZ001>003-009>011-017-221700-
NORTHWEST NORTH DAKOTA

CITY           SKY/WX    TMP DP  RH WIND       PRES   REMARKS
WILLISTON      MOSUNNY   56  41  57 W20G26    29.81S
MINOT          CLOUDY    55  43  63 SW18G30   29.75R
MINOT AFB      CLOUDY    55  46  71 W20G28    29.74R
$$

NDZ018>021-031>035-040>046-221700-
SOUTHWEST NORTH DAKOTA

CITY           SKY/WX    TMP DP  RH WIND       PRES   REMARKS
BISMARCK       CLOUDY    57  45  64 W10       29.86R
DICKINSON      MOSUNNY   51  40  65 W21       29.86S
GARRISON         N/A     56  44  64 W21       29.81S
HETTINGER ARPT PTSUNNY   50  38  63 W18       29.93R
$$

NDZ004>008-012>016-024-026-027-054-221700-
NORTHEAST NORTH DAKOTA

CITY           SKY/WX    TMP DP  RH WIND       PRES   REMARKS
GRAND FORKS    PTSUNNY   57  44  62 S23G35    29.82R
GRND FRKS AFB  PTSUNNY   57  45  64 S21G28    29.81S
DEVILS LAKE    CLOUDY    55  45  67 W13       29.77S
$$

NDZ022-023-025-028>030-036>039-047>053-221700-
SOUTHEAST NORTH DAKOTA

CITY           SKY/WX    TMP DP  RH WIND       PRES   REMARKS
FARGO          PTSUNNY   58  43  57 S24G41    29.86S
JAMESTOWN      CLOUDY    56  47  71 S15       29.83R
$$




USA.gov is the U.S. government's official web portal to all federal, state and local government web resources and services.